| time (UTC) | temp F | wind direction | speed knots | gust knots | rain 1hr in | rain 24hr in | rain mn in | humidity % | barometer mb |
| 20260505011015 | 70 | 243 | 0.9 | 2.6 | 0.00 | 0.00 | 0.00 | 59 | 1011.8 |
| 20260505010017 | 71 | 273 | 0.9 | 2.6 | 0.00 | 0.00 | 0.00 | 57 | 1011.7 |
| 20260505005015 | 72 | 309 | 1.7 | 4.3 | 0.00 | 0.00 | 0.00 | 55 | 1011.6 |
| 20260505004015 | 72 | 31 | 0.9 | 4.3 | 0.00 | 0.00 | 0.00 | 54 | 1011.7 |
| 20260505003016 | 73 | 22 | 1.7 | 7.0 | 0.00 | 0.00 | 0.00 | 54 | 1011.7 |
| 20260505002015 | 73 | 284 | 2.6 | 6.1 | 0.00 | 0.00 | 0.00 | 53 | 1011.5 |
| 20260505001015 | 73 | 281 | 2.6 | 6.1 | 0.00 | 0.00 | 0.00 | 52 | 1011.5 |
| 20260505000015 | 74 | 321 | 1.7 | 8.7 | 0.00 | 0.00 | 0.00 | 51 | 1011.5 |
| 20260504235015 | 74 | 21 | 2.6 | 8.7 | 0.00 | 0.00 | 0.00 | 50 | 1011.5 |
| 20260504234015 | 75 | 6 | 4.3 | 10.4 | 0.00 | 0.00 | 0.00 | 49 | 1011.7 |
| 20260504233015 | 75 | 357 | 4.3 | 11.3 | 0.00 | 0.00 | 0.00 | 48 | 1011.6 |
| 20260504232015 | 76 | 29 | 3.5 | 11.3 | 0.00 | 0.00 | 0.00 | 48 | 1011.6 |
| 20260504231016 | 76 | 348 | 4.3 | 11.3 | 0.00 | 0.00 | 0.00 | 47 | 1011.7 |
| 20260504230005 | 77 | 331 | 4.3 | 11.3 | 0.00 | 0.00 | 0.00 | 46 | 1011.6 |
| 20260504225015 | 77 | 12 | 5.2 | 10.4 | 0.00 | 0.00 | 0.00 | 46 | 1011.7 |
| 20260504224015 | 78 | 353 | 6.1 | 12.2 | 0.00 | 0.00 | 0.00 | 45 | 1011.7 |
| 20260504223015 | 78 | 6 | 4.3 | 12.2 | 0.00 | 0.00 | 0.00 | 45 | 1011.6 |
| 20260504222015 | 78 | 341 | 2.6 | 13.0 | 0.00 | 0.00 | 0.00 | 45 | 1011.8 |
| 20260504221016 | 78 | 11 | 7.0 | 11.3 | 0.00 | 0.00 | 0.00 | 45 | 1012.0 |
| 20260504220015 | 79 | 9 | 7.8 | 14.8 | 0.00 | 0.00 | 0.00 | 44 | 1012.0 |
| 20260504215015 | 79 | 38 | 5.2 | 11.3 | 0.00 | 0.00 | 0.00 | 44 | 1012.0 |
| 20260504214015 | 79 | 6 | 7.0 | 13.0 | 0.00 | 0.00 | 0.00 | 44 | 1012.2 |
| 20260504213015 | 79 | 6 | 7.8 | 13.9 | 0.00 | 0.00 | 0.00 | 44 | 1012.2 |
| 20260504212015 | 79 | 358 | 7.8 | 13.9 | 0.00 | 0.00 | 0.00 | 44 | 1012.3 |
| 20260504211016 | 80 | 39 | 3.5 | 11.3 | 0.00 | 0.00 | 0.00 | 44 | 1012.4 |
| 20260504210015 | 80 | 22 | 5.2 | 11.3 | 0.00 | 0.00 | 0.00 | 43 | 1012.6 |
| 20260504205015 | 80 | 38 | 4.3 | 13.0 | 0.00 | 0.00 | 0.00 | 43 | 1012.7 |
| 20260504204015 | 80 | 3 | 5.2 | 13.0 | 0.00 | 0.00 | 0.00 | 43 | 1012.9 |
| 20260504203015 | 81 | 1 | 6.1 | 15.6 | 0.00 | 0.00 | 0.00 | 42 | 1013.0 |
| 20260504202015 | 81 | 28 | 4.3 | 8.7 | 0.00 | 0.00 | 0.00 | 42 | 1013.1 |
| 20260504201015 | 81 | 67 | 4.3 | 13.9 | 0.00 | 0.00 | 0.00 | 42 | 1013.3 |
| 20260504200015 | 80 | 339 | 4.3 | 14.8 | 0.00 | 0.00 | 0.00 | 42 | 1013.5 |
| 20260504195015 | 81 | 351 | 6.1 | 13.9 | 0.00 | 0.00 | 0.00 | 41 | 1013.5 |
| 20260504193015 | 82 | 355 | 5.2 | 10.4 | 0.00 | 0.00 | 0.00 | 42 | 1013.8 |
| 20260504191015 | 81 | 5 | 7.8 | 12.2 | 0.00 | 0.00 | 0.00 | 42 | 1014.0 |
| 20260504185015 | 82 | 23 | 2.6 | 12.2 | 0.00 | 0.00 | 0.00 | 43 | 1014.2 |
| 20260504184015 | 83 | 94 | 5.2 | 13.9 | 0.00 | 0.00 | 0.00 | 41 | 1014.3 |
| 20260504182015 | 82 | 15 | 5.2 | 13.0 | 0.00 | 0.00 | 0.00 | 44 | 1014.4 |
| 20260504181015 | 81 | 14 | 6.1 | 11.3 | 0.00 | 0.00 | 0.00 | 45 | 1014.5 |
| 20260504180015 | 82 | 350 | 3.5 | 11.3 | 0.00 | 0.00 | 0.00 | 45 | 1014.5 |
| 20260504175015 | 83 | 3 | 4.3 | 10.4 | 0.00 | 0.00 | 0.00 | 45 | 1014.5 |
| 20260504174015 | 81 | 40 | 4.3 | 8.7 | 0.00 | 0.00 | 0.00 | 46 | 1014.8 |
| 20260504173015 | 81 | 13 | 7.0 | 14.8 | 0.00 | 0.00 | 0.00 | 46 | 1015.0 |
| 20260504172015 | 81 | 28 | 6.1 | 10.4 | 0.00 | 0.00 | 0.00 | 46 | 1015.1 |
| 20260504171017 | 80 | 30 | 4.3 | 13.0 | 0.00 | 0.00 | 0.00 | 48 | 1015.3 |
| 20260504151017 | 76 | 45 | 4.3 | 7.8 | 0.00 | 0.00 | 0.00 | 55 | 1016.5 |
| 20260504141017 | 70 | 13 | 5.2 | 10.4 | 0.00 | 0.00 | 0.00 | 62 | 1017.0 |
| 20260504081017 | 52 | 331 | 0.9 | 4.3 | 0.00 | 0.00 | 0.00 | 92 | 1016.4 |
| 20260504044017 | 54 | 282 | 0.0 | 0.0 | 0.00 | 0.00 | 0.00 | 88 | 1018.0 |
| 20260504043017 | 54 | 282 | 0.0 | 0.0 | 0.00 | 0.00 | 0.00 | 87 | 1017.9 |
| 20260504042016 | 54 | 282 | 0.0 | 2.6 | 0.00 | 0.00 | 0.00 | 86 | 1017.9 |
| 20260504041016 | 55 | 237 | 0.0 | 2.6 | 0.00 | 0.00 | 0.00 | 86 | 1018.0 |
| 20260504040016 | 55 | 267 | 0.9 | 2.6 | 0.00 | 0.00 | 0.00 | 85 | 1018.1 |
| 20260504035016 | 55 | 240 | 0.0 | 4.3 | 0.00 | 0.00 | 0.00 | 85 | 1018.1 |
| 20260504034016 | 55 | 208 | 0.9 | 2.6 | 0.00 | 0.00 | 0.00 | 84 | 1018.2 |
| 20260504033016 | 55 | 322 | 0.0 | 0.0 | 0.00 | 0.00 | 0.00 | 83 | 1018.2 |
| 20260504032017 | 55 | 322 | 0.0 | 0.0 | 0.00 | 0.00 | 0.00 | 83 | 1018.1 |
| 20260504031016 | 56 | 322 | 0.0 | 1.7 | 0.00 | 0.00 | 0.00 | 83 | 1018.1 |
| 20260504030016 | 56 | 320 | 0.0 | 1.7 | 0.00 | 0.00 | 0.00 | 82 | 1018.2 |
| 20260504025017 | 57 | 318 | 0.0 | 0.0 | 0.00 | 0.00 | 0.00 | 81 | 1018.0 |
| 20260504023017 | 58 | 318 | 0.0 | 0.0 | 0.00 | 0.00 | 0.00 | 79 | 1017.9 |
| 20260504022017 | 58 | 318 | 0.0 | 1.7 | 0.00 | 0.00 | 0.00 | 78 | 1017.9 |
| 20260504021016 | 59 | 313 | 0.0 | 0.0 | 0.00 | 0.00 | 0.00 | 76 | 1017.8 |
| 20260504015016 | 60 | 313 | 0.0 | 0.0 | 0.00 | 0.00 | 0.00 | 73 | 1017.7 |
| 20260504014016 | 60 | 313 | 0.0 | 0.0 | 0.00 | 0.00 | 0.00 | 72 | 1017.6 |
| 20260504012016 | 61 | 313 | 0.0 | 0.0 | 0.00 | 0.00 | 0.00 | 70 | 1017.3 |